Regional Weather Roundup
Issued by NWS Nashville, TN

Home | Current Version | Previous Version | Text Only | Print | Product List | Glossary On
Versions: 1 2 3 4 5 6 7 8 9 10 11 12 13 14 15 16 17 18 19 20 21 22 23 24 25 26 27 28 29 30 31 32 33 34 35 36 37 38 39 40 41 42 43 44 45 46 47 48 49 50
490
ASUS44 KOHX 191610
RWROHX
MIDDLE TENNESSEE HOURLY WEATHER ROUNDUP
NATIONAL WEATHER SERVICE NASHVILLE TN
1000 AM CST THU JAN 19 2017

NOTE: "FAIR" INDICATES FEW OR NO CLOUDS BELOW 12,000 FEET WITH
NO SIGNIFICANT WEATHER AND/OR OBSTRUCTIONS TO VISIBILITY.

* THESE REPORTS ARE NOT UNDER NWS QUALITY CONTROL AND MAY NOT
  REPORT WEATHER SUCH AS PRECIPITATION AND FOG.


TNZ005>011-023>034-057-059-062>066-078-080-191700
...NORTHERN MIDDLE TENNESSEE...

CITY           SKY/WX    TMP DP  RH WIND       PRES   REMARKS
CLARKSVILLE    CLOUDY    51  49  92 E8        29.96S
CROSSVILLE     CLOUDY    49  47  93 SE3       30.04S
GALLATIN       CLOUDY    52  50  93 E6        30.03R
LEBANON        CLOUDY    50  48  92 CALM      29.98S
NASHVILLE      CLOUDY    51  48  89 E3        29.99S
PORTLAND       CLOUDY    52  50  93 SE5       30.00R FOG
SMYRNA         CLOUDY    52  50  93 E3        30.00R
SPRINGFIELD    PTSUNNY   52  52 100 VRB7      29.97R
WEST NASHVILLE MOSUNNY   48  48 100 VRB5      29.98S
$$
TNZ056-058-060-061-075>077-079-093>097-191700
...SOUTHERN MIDDLE TENNESSEE...

CITY           SKY/WX    TMP DP  RH WIND       PRES   REMARKS
COLUMBIA       CLOUDY   N/A N/A N/A CALM      29.94F
FAYETTEVILLE   MOSUNNY   61  57  88 S8        29.97S
MCMINNVILLE    CLOUDY    55  55 100 CALM      30.00R
SHELBYVILLE    CLOUDY    59  57  94 E5        29.98S
TULLAHOMA      MOSUNNY   57  54  88 SE6       29.99S
WINCHESTER     SUNNY     57  54  88 E9        30.00R
$$


...KEY TO REMARKS...
VSB - VISIBILITY IN MILES
WCI - WIND CHILL INDEX
HX  - HEAT INDEX





USA.gov is the U.S. government's official web portal to all federal, state and local government web resources and services.